KN6RO-14 Weather Reports


time (UTC)temp
C
wind
direction
speed
KPH
gust
KPH
rain 1hr
cm
rain 24hr
cm
rain mn
cm
humidity
%
barometer
mb
20260906111732 24 240 0.0 1.6 0.00 0.00 0.00 74 1010.5
20260906104730 25 306 0.0 0.0 0.00 0.00 0.00 71 1010.5
20260906101730 25 331 1.6 4.8 0.00 0.00 0.00 69 1010.4
20260906094730 25 255 1.6 1.6 0.00 0.00 0.00 70 1010.3
20260906091730 25 242 0.0 1.6 0.00 0.00 0.00 70 1010.3
20260906084731 24 247 0.0 3.2 0.00 0.00 0.00 70 1010.2
20260906081730 25 256 0.0 1.6 0.00 0.00 0.00 65 1010.2
20260906071731 25 258 0.0 0.0 0.00 0.00 0.00 69 1010.2
20260906064731 25 251 0.0 1.6 0.00 0.00 0.00 71 1010.4
20260906061731 25 262 0.0 1.6 0.00 0.00 0.00 68 1010.3
20260906054731 24 257 0.0 1.6 0.00 0.00 0.00 70 1010.8
20260906051731 23 248 0.0 1.6 0.00 0.00 0.00 75 1011.3
20260906044731 23 244 0.0 1.6 0.00 0.00 0.00 76 1011.4
20260906041734 23 244 0.0 1.6 0.00 0.00 0.00 78 1011.4
20260906034733 23 246 0.0 1.6 0.00 0.00 0.00 79 1011.4
20260906031731 24 304 0.0 0.0 0.00 0.00 0.00 76 1011.5
20260906021731 25 261 0.0 1.6 0.00 0.00 0.00 73 1011.7
20260906014731 25 264 0.0 1.6 0.00 0.00 0.00 74 1011.3
20260906011731 25 308 0.0 1.6 0.00 0.00 0.00 78 1010.7
20260906004731 26 240 1.6 3.2 0.00 0.00 0.00 73 1010.3
20260905234731 26 346 0.0 1.6 0.00 0.00 0.00 74 1009.5
20260905231731 26 250 0.0 1.6 0.00 0.00 0.00 72 1010.1
20260905224731 27 250 0.0 1.6 0.00 0.00 0.00 69 1010.1
20260905221732 27 52 1.6 1.6 0.00 0.00 0.00 68 1010.4
20260905211732 28 319 4.8 9.7 0.00 0.00 0.00 67 1009.7
20260905204734 31 2 3.2 6.4 0.00 0.00 0.00 55 1009.9
20260905194732 31 352 3.2 6.4 0.00 0.00 0.00 52 1009.9
20260905191732 31 319 3.2 8.0 0.00 0.00 0.00 54 1010.4
20260905184734 32 51 3.2 4.8 0.00 0.00 0.00 54 1010.6
20260905174732 31 57 4.8 9.7 0.00 0.00 0.00 58 1011.3
20260905154734 30 70 4.8 9.7 0.00 0.00 0.00 65 1012.5
20260905151734 30 325 1.6 4.8 0.00 0.00 0.00 62 1012.6
20260905144732 31 322 0.0 1.6 0.00 0.00 0.00 65 1012.8
20260905141732 30 324 0.0 1.6 0.00 0.00 0.00 72 1013.0
20260905134732 29 324 0.0 1.6 0.00 0.00 0.00 72 1013.0
20260905131734 28 304 1.6 3.2 0.00 0.00 0.00 70 1013.3
20260905124732 27 250 0.0 1.6 0.00 0.00 0.00 75 1013.2
20260905121733 26 250 0.0 0.0 0.00 0.00 0.00 72 1013.2
20260905114733 26 249 0.0 1.6 0.00 0.00 0.00 72 1012.9